Regional Weather Roundup
Issued by NWS Grand Forks, ND

Home | Current Version | Previous Version | Graphics & Text | Print | Product List | Glossary On
Versions: 1 2 3 4 5 6 7 8 9 10 11 12 13 14 15 16 17 18 19 20 21 22 23 24 25 26 27 28 29 30 31 32 33 34 35 36 37 38 39 40 41 42 43 44 45 46 47 48 49 50
000
ASUS43 KFGF 230310
RWRFGF
PRAIRIE TO PINES  WEATHER ROUNDUP
NATIONAL WEATHER SERVICE EASTERN NORTH DAKOTA/GRAND FORKS ND
900 PM CST SAT NOV 22 2014

 **SATELLITE DATA USED TO AUGMENT SKY COVER AT AUTOMATED STATIONS**
 *****  WEATHER ACROSS EASTERN NORTH DAKOTA  *****

CITY           SKY/WX    TMP DP  RH WIND       PRES   REMARKS
GRAND FORKS    MOCLDY    35  30  82 S15       29.37S
GRAND FRKS AFB CLOUDY    35  32  88 S13       29.36S
GRAND FRKS NWS   N/A     32 N/A N/A S13         N/A  WCI  22
DEVILS LAKE    CLOUDY    36  25  64 S10       29.29S
FARGO          CLOUDY    35  32  88 SE17      29.39F FOG     WCI  25
WAHPETON ARPT  CLOUDY    34  32  93 SE14      29.42S WCI  24
$$

 ***** WEATHER ACROSS CENTRAL AND WESTERN NORTH DAKOTA  *****

CITY           SKY/WX    TMP DP  RH WIND       PRES   REMARKS
BISMARCK       CLEAR     33  31  92 CALM      29.34S
MINOT          MOCLDY    40  30  67 SW12      29.28R
JAMESTOWN      CLOUDY    33  28  81 S7        29.32F
MINOT AFB      MOCLDY    36  31  82 W10       29.26R
GARRISON         N/A     35  29  78 W5        29.30R
WILLISTON      PTCLDY    33  30  88 SW8       29.29F
DICKINSON      MOCLDY    37  33  85 W10       29.33R
HETTINGER      LGT RAIN  38  35  89 SW10      29.40R
$$

 *****  OTHER AIRPORT OBSERVATIONS IN OUR AREA  *****

CITY           SKY/WX    TMP DP  RH WIND       PRES   REMARKS
WALHALLA         N/A     32  32 100 SE14      29.32F WCI  22
GRAFTON AIRPOR FAIR      32  30  93 S8        29.35S WCI  25
VALLEY CITY AR CLOUDY    32  32 100 S8        29.34F WCI  25
CANDO          CLOUDY    36  30  80 S9        29.31R
CAVALIER APRT  FAIR      32  28  86 S6        29.35F
GWINNER        CLEAR     32  32 100 CALM      29.38R
SHEYENNE NWR     N/A     33  32  96 SE10      29.95S WCI  25
ROLLA          MOCLDY    34  30  86 S9        29.28F
 ***** THE ABOVE OBSERVATIONS ARE NON NWS ARE NOT QUALITY
       CONTROLLED AND MAY MIS-REPORT RAIN FOR SNOW...
$$

  *****  WEATHER ACROSS NORTHERN MINNESOTA  *****

CITY           SKY/WX    TMP DP  RH WIND       PRES   REMARKS
FLAG ISLAND    CLOUDY    34  30  86 E12G17    29.42F
WARROAD        CLOUDY    36  30  80 E6        29.41F
ROSEAU         CLOUDY    37  32  81 E9        29.38F
HALLOCK        CLOUDY    36  30  80 SE7       29.36R
THF RVR FALLS  MOCLDY    37  30  75 SE12      29.38F
BAUDETTE       CLOUDY    35  30  82 E9        29.43F
WASKISH        MOCLDY    37  30  75 CALM      29.43F
CROOKSTON      MOCLDY    36  30  80 S16G22    29.40S
STEPHEN NDAWN    N/A     37  30  75 S12         N/A
GREENBUSH NDAW   N/A     36  30  80 SE9         N/A
$$
  *****  WEATHER ACROSS CENTRAL AND WEST MINNESOTA  *****

CITY           SKY/WX    TMP DP  RH WIND       PRES   REMARKS
FOSSTON        CLOUDY    34  28  80 S10       29.40F
BEMIDJI        CLOUDY    33  29  86 SE15      29.43F WCI  23
PARK RAPIDS    CLOUDY    31  30  96 SE15      29.46S FOG     WCI  20
ELBOW LAKE       N/A     33  33 100 SE16      29.42F FOG     WCI  22
WADENA         CLOUDY    30  30 100 SE14      29.44F FOG     WCI  20
DETROIT LAKES  CLOUDY    32  32 100 SE16      29.41F FOG     WCI  21
MOORHEAD       CLOUDY    36  36 100 S16       29.40F FOG
FERGUS FALLS   CLOUDY    34  34 100 SE13      29.44F FOG     WCI  25
MORRIS MN      FOG       34  34 100 SE17      29.42S VSB 1/4 WCI  23
STAPLES        CLOUDY    30  30 100 SE8       29.48F FOG     WCI  23
$$
  *****  WEATHER ELSEWHERE ACROSS MINNESOTA  *****

CITY           SKY/WX    TMP DP  RH WIND       PRES   REMARKS
DULUTH         CLOUDY    33  30  88 SE13      29.57F FOG     WCI  24
INTRNTL FALLS  CLOUDY    33  30  88 SE9       29.49F
ELY            CLOUDY    30  30 100 SE5       29.56F FOG
CLOQUET        CLOUDY    34  30  86 SE6       29.57F FOG
WHEATON        FOG       30  30 100 SE16G24   29.42F VSB 3/4 WCI  19
BRAINERD       FOG       31  31 100 SE9       29.51F VSB 1   WCI  23
HIBBING        CLOUDY    34  30  85 SE9       29.54F FOG
ALEXANDRIA     FOG       33  33 100 SE13      29.46F VSB 1/2 WCI  24
SAINT CLOUD    FOG       35  33  92 SE9       29.52F VSB 1/2
MINNEAPOLIS    CLOUDY    36  36 100 SE6       29.58F FOG
$$

  *****  WEATHER ACROSS SOUTH DAKOTA  *****

CITY           SKY/WX    TMP DP  RH WIND       PRES   REMARKS
SIOUX FALLS    CLOUDY    41  37  86 S14       29.46S
BROOKINGS      NOT AVBL
WATERTOWN      MOCLDY    35  32  88 S8        29.40F
HURON          CLOUDY    38  32  79 SW5       29.41S
SISSETON         N/A     31  31 100 SE12      29.38F WCI  22
ABERDEEN       CLOUDY    32  29  88 S7        29.38F
MITCHELL       CLOUDY    46  34  62 SW7       29.44F
PIERRE         CLOUDY    39  31  72 S3        29.40F
MOBRIDGE       CLOUDY    36  31  82 SE7       29.34F
RAPID CITY     CLOUDY    43  30  60 E5        29.42S
$$

  *****  SOME WEATHER IN NEARBY STATES *****

CITY           SKY/WX    TMP DP  RH WIND       PRES   REMARKS
GLASGOW MT     CLOUDY    38  30  73 W28G38    29.31R
GREAT FALLS MT PTCLDY    34  18  52 SW16      29.55R WCI  24
CHEYENNE WY    PTCLDY    42  24  49 W17       29.56F
SCOTTSBLUFF NE CLOUDY    36  27  69 SE5       29.51F
OMAHA NE       CLOUDY    55  53  93 S10       29.60S
DES MOINES IA  PTCLDY    54  50  86 S14       29.67S
DAVENPORT IA   CLOUDY    53  47  79 S13       29.79S
CHICAGO IL     CLOUDY    51  45  79 S15       29.85S
EAU CLAIRE WI  FOG       36  35  96 SE6       29.65F VSB 3/4
LA CROSSE WI   CLOUDY    43  41  93 S13       29.66F FOG
$$

  *****  SOME NATIONAL WEATHER *****

CITY           SKY/WX    TMP DP  RH WIND       PRES   REMARKS
LA GUARDIA NY  CLOUDY    43  19  38 SW12      30.22S
RALEIGH NC     PTCLDY    37  20  50 CALM      30.35F
ATLANTA GA     CLOUDY    55  28  35 E10       30.24F
NEW ORLEANS LA CLOUDY    64  60  87 E9G20     29.94F
OKLAHOMA CITY  CLOUDY    57  53  86 SE21      29.73F
ALBUQUERQUE NM MOCLDY    45  16  31 E3        29.91S
SALT LAKE CITY CLOUDY    36  34  92 CALM      29.87R
LOS ANGELES CA PTCLDY    63  56  78 S6        30.01S
BOISE ID       CLOUDY    40  33  76 NW10      29.93R
SEATTLE WA     CLOUDY    47  42  83 S7        30.04R
$$

*** WEATHER ACROSS MANITOBA...SASKATCHEWAN AND ONTARIO ***
                ***ONTARIO***

CITY           SKY/WX    TMP DP  RH WIND       PRES   REMARKS
GERALDTON      CLOUDY    27  23  86 E6        29.66F WCI  20
THUNDER BAY    CLOUDY    36  32  87 E9        29.65F
SIOUX LOOKOUT  CLOUDY    27  23  86 VRB5      29.56F WCI  21
TORONTO        LGT RAIN  43  41  93 S7        29.92F
BIG TROUT LK   MOCLDY     1  -2  85 N3        29.74R
PICKLE LAKE    NOT AVBL
DRYDEN         CLOUDY    30  27  86 E6        29.52F WCI  24
KENORA         CLOUDY    32  30  93 SE9       29.46F WCI  24
$$
                *** MANITOBA***

CITY           SKY/WX    TMP DP  RH WIND       PRES   REMARKS
BRANDON        FOG       25  25 100 E15       29.29F VSB 5/8 WCI  12
DAUPHIN        NOT AVBL
ISLAND LAKE    MOCLDY     3   1  92 E7        29.70S WCI  -9
PILOT MOUND      N/A     32  28  86 S9          N/A  WCI  24
THE PAS        LGT SNOW   7   1  78 NE9       29.60R VSB 1   WCI  -7
THOMPSON       CRYSTALS -11 -17  77 NE6       29.75F WCI -25
WINNIPEG       CLOUDY    30  27  86 E13       29.36F WCI  20
LYNN LAKE      CLEAR    -17 -20  83 N3        29.74R
CHURCHILL      CLEAR    -17 -22  76 W8        29.79S WCI -34
GILLAM         CLEAR    -18 -22  83 W2        29.80R
$$
                ***SASKATCHEWAN***

CITY           SKY/WX    TMP DP  RH WIND       PRES   REMARKS
ESTEVAN        CLEAR     32  27  80 SW10      29.20S WCI  24
KINDERSLEY     LGT SNOW  21  19  93 N17G24    29.34R DRFTSNOWWCI   7
LLOYDMINSTER   LGT SNOW  19  18  93 N10       29.45R DRFTSNOWWCI   8
PRINCE ALBERT  LGT SNOW  14  10  85 NE17G24   29.43R DRFTSNOWWCI  -3
REGINA         CLOUDY    36  32  87 SW13      29.11R
YORKTON        FLURRIES  21  19  93 E15G22    29.24S WCI   8
N. BATTLEFORD  LGT SNOW  21  18  86 NE10      29.42R WCI  10
LA RONGE       LGT SNOW   5   1  85 NE12      29.63R WCI -11
SASKATOON      LGT SNOW  18  14  86 NE25G35   29.31R DRFTSNOWWCI  -1
SWIFT CURRENT  LGT SNOW  30  28  93 NW24G33   29.19R WCI  16
$$
NOTE: THESE ARE AUTOMATED STATIONS WITH LIMITED QUALITY CONTROL
      "FAIR" INDICATES FEW OR NO CLOUDS BELOW 12,000 FEET WITH NO
      SIGNIFICANT WEATHER AND/OR OBSTRUCTIONS TO VISIBILITY.
      SKY/WX - SKY CONDITION AND SIGNIFICANT WEATHER.
      TMP - AIR TEMPERATURE.    DP   - DEWPOINT TEMPERATURE.
      RH  - RELATIVE HUMIDITY.  PRES - PRESSURE.
      HX  - HEAT INDEX.         WCI  - WIND CHILL INDEX.
$



USA.gov is the U.S. government's official web portal to all federal, state and local government web resources and services.